Showing default

SES MPOWER-A F1, 54755

Orbit data source: Space-Track

SES MPOWER-A F1, 54755 is a payload satellite owned by O3B SES (LU) that was launched on Fri, 16 Dec 2022 UTC via an FALCON 9 launch vehicle from the Air Force Eastern Test Range (AFETR). Payload-class satellites include a variety of spacecraft equipped with specific instruments for various scientific and technological missions. These include communications satellites like Starlink; space stations such as the ISS; scientific satellites like the Hubble; Earth observation satellites from companies like Planet Labs, Umbra, and HawkEye 360; GPS; miniature CubeSats for education and research; and military/defense satellites.

Loading next visibility...
Identifier
54755, 2022-174A
Orbit
Active
Country
Flag of LULU / SES
Related business
Manufacturer
Boeing/ES
Mission
Partially operational Commercial Communications
Bus & Motor
702X, PPS5000
Mass
1,700 kg wet, 1,700 kg dry
Launch date (UTC)
2022-12-16 (4 years ago)
Launch vehicle
FALCON 9
Launch site
Air Force Eastern Test Range (AFETR)
Object type
Payload
Rocket body
Debris
Shape & HBR
Box + 2 Pan, 13.5 m
Radar Cross Section
27.396 m², Large (>1 m²)

Expand to show TLE details & history
Last TLE update: 2 days ago

TLE from 2 days ago
0 SES MPOWER-A F1
1 54755U 22174A   26171.46400404 -.00000024  00000-0  00000+0 0  9997
2 54755   0.0518 341.5020 0006455 120.9944 117.8650  5.00114922 65526
Epoch: 2026-06-20T11:08Z
TLE epoch observation values (Epoch: 2026-06-20T11:08:09.949Z)
Latitude
-0.04706°
Longitude
144.70953°
Altitude
8,068.758 km
Speed
5.253 km/s
True Right ascension
14h 41m 43s
True Declination
0° 02' 49"
Sunlit
Object was in daylight at epoch
Visualization orbit readout
Latitude
Unknown
Longitude
Unknown
Altitude
Unknown
Speed
Unknown
Apparent Right ascension
Unknown
Apparent Declination
Unknown
Sunlit
N/A
Visualization observer readout
Local Sidereal Time
21:30:59
Azimuth
Unknown
Elevation
Unknown
Doppler factor
Unknown
Orbital elements
Apogee altitude
8,078.285 km
Perigee altitude
8,059.634 km
Semi-major axis
14,447.097 km
Eccentricity
0.00065
Inclination
0.0518°
RAAN
341.502°
Arg. of periapsis
120.9944°
True anomaly
117.93037°
Mean anomaly
117.865°
Eccentric anomaly
117.89769°
Mean motion
1.24989 °/min
Orbital period
288.03 mins
BSTAR
0
Loading maneuver chart data...
Computing Atmospheric mass density...
Loading historical data...
Loading historical data...
Loading historical data...
Loading historical data...
Loading historical data...
Loading historical data...
Loading historical data...
Other satellites on launch #174 in the year 2022 (2022-12-16 UTC)

Documentation

Showing up to 5 results
|